Time,TemperatureF,DewpointF,PressureIn,WindDirection,WindDirectionDegrees,WindSpeedMPH,WindSpeedGustMPH,Humidity,HourlyPrecipIn,Conditions,Clouds,dailyrainin,SolarRadiationWatts/m^2,SoftwareType,DateUTC
2013-04-23 00:00:00,25.0,15.0,30.26,SW,236,9.0,-999.0,65,-99.99,,,-99.99,0.040000,,2013-04-23 06:00:00,
2013-04-23 00:52:00,25.0,15.0,30.26,SW,236,9.0,-999.0,65,-99.99,,,-99.99,0.040000,,2013-04-23 06:52:00,
2013-04-23 02:00:00,25.0,15.0,30.22,WSW,242,11.0,-999.0,66,-99.99,,,-99.99,0.060000,,2013-04-23 08:00:00,
2013-04-23 02:52:00,25.0,15.0,30.22,WSW,242,11.0,-999.0,66,-99.99,,,-99.99,0.060000,,2013-04-23 08:52:00,
2013-04-23 03:00:00,25.0,16.0,30.20,WSW,239,11.0,-999.0,67,-99.99,,,-99.99,0.040000,,2013-04-23 09:00:00,
2013-04-23 03:53:00,25.0,16.0,30.20,WSW,239,11.0,-999.0,67,-99.99,,,-99.99,0.040000,,2013-04-23 09:53:00,
2013-04-23 04:00:00,25.0,16.0,30.19,WSW,252,11.0,-999.0,69,-99.99,,,-99.99,0.060000,,2013-04-23 10:00:00,
2013-04-23 04:52:00,25.0,16.0,30.19,WSW,252,11.0,-999.0,69,-99.99,,,-99.99,0.060000,,2013-04-23 10:52:00,
2013-04-23 05:00:00,23.0,17.0,30.18,WSW,257,9.0,-999.0,75,-99.99,,,-99.99,0.050000,,2013-04-23 11:00:00,
2013-04-23 05:53:00,23.0,17.0,30.18,WSW,257,9.0,-999.0,75,-99.99,,,-99.99,0.050000,,2013-04-23 11:53:00,
2013-04-23 06:00:00,25.0,19.0,30.16,West,261,12.0,-999.0,76,-99.99,,,-99.99,0.750000,,2013-04-23 12:00:00,
2013-04-23 06:52:00,25.0,19.0,30.16,West,261,12.0,-999.0,76,-99.99,,,-99.99,0.750000,,2013-04-23 12:52:00,
2013-04-23 07:00:00,28.0,21.0,30.15,West,268,11.0,-999.0,76,-99.99,,,-99.99,46.000000,,2013-04-23 13:00:00,
2013-04-23 07:52:00,28.0,21.0,30.15,West,268,11.0,-999.0,76,-99.99,,,-99.99,46.000000,,2013-04-23 13:52:00,
2013-04-23 08:00:00,33.0,21.0,30.14,West,263,15.0,-999.0,61,-99.99,,,-99.99,176.500000,,2013-04-23 14:00:00,
2013-04-23 08:52:00,33.0,21.0,30.14,West,263,15.0,-999.0,61,-99.99,,,-99.99,176.500000,,2013-04-23 14:52:00,
2013-04-23 09:00:00,36.0,18.0,30.14,West,264,18.0,-999.0,47,-99.99,,,-99.99,310.899994,,2013-04-23 15:00:00,
2013-04-23 09:53:00,36.0,18.0,30.14,West,264,18.0,-999.0,47,-99.99,,,-99.99,310.899994,,2013-04-23 15:53:00,
2013-04-23 10:00:00,37.0,16.0,30.12,West,273,17.0,-999.0,43,-99.99,,,-99.99,467.700012,,2013-04-23 16:00:00,
2013-04-23 10:53:00,37.0,16.0,30.12,West,273,17.0,-999.0,43,-99.99,,,-99.99,467.700012,,2013-04-23 16:53:00,
2013-04-23 11:00:00,39.0,15.0,30.11,West,275,14.0,-999.0,38,-99.99,,,-99.99,592.599976,,2013-04-23 17:00:00,
2013-04-23 11:53:00,39.0,15.0,30.11,West,275,14.0,-999.0,38,-99.99,,,-99.99,592.599976,,2013-04-23 17:53:00,
2013-04-23 12:00:00,41.0,14.0,30.09,West,260,14.0,-999.0,33,-99.99,,,-99.99,685.700012,,2013-04-23 18:00:00,
2013-04-23 12:52:00,41.0,14.0,30.09,West,260,14.0,-999.0,33,-99.99,,,-99.99,685.700012,,2013-04-23 18:52:00,
2013-04-23 13:00:00,42.0,12.0,30.06,West,262,13.0,-999.0,29,-99.99,,,-99.99,722.299988,,2013-04-23 19:00:00,
2013-04-23 13:52:00,42.0,12.0,30.06,West,262,13.0,-999.0,29,-99.99,,,-99.99,722.299988,,2013-04-23 19:52:00,
2013-04-23 14:00:00,44.0,11.0,30.03,West,274,12.0,-999.0,26,-99.99,,,-99.99,719.900024,,2013-04-23 20:00:00,
2013-04-23 14:52:00,44.0,11.0,30.03,West,274,12.0,-999.0,26,-99.99,,,-99.99,719.900024,,2013-04-23 20:52:00,
2013-04-23 15:00:00,46.0,12.0,30.01,West,270,12.0,-999.0,25,-99.99,,,-99.99,687.799988,,2013-04-23 21:00:00,
2013-04-23 15:52:00,46.0,12.0,30.01,West,270,12.0,-999.0,25,-99.99,,,-99.99,687.799988,,2013-04-23 21:52:00,
2013-04-23 16:00:00,47.0,14.0,29.99,WNW,290,13.0,-999.0,26,-99.99,,,-99.99,515.299988,,2013-04-23 22:00:00,
2013-04-23 16:52:00,47.0,14.0,29.99,WNW,290,13.0,-999.0,26,-99.99,,,-99.99,515.299988,,2013-04-23 22:52:00,
2013-04-23 17:00:00,46.0,12.0,29.97,WNW,287,13.0,-999.0,25,-99.99,,,-99.99,412.200012,,2013-04-23 23:00:00,
2013-04-23 17:52:00,46.0,12.0,29.97,WNW,287,13.0,-999.0,25,-99.99,,,-99.99,412.200012,,2013-04-23 23:52:00,